TimeEST,TemperatureF,Dew PointF,Humidity,Sea Level PressureIn,VisibilityMPH,Wind Direction,Wind SpeedMPH,Gust SpeedMPH,PrecipitationIn,Events,Conditions,WindDirDegrees,DateUTC
12:11 AM,28.4,24.8,86,29.95,3.0,West,8.1,-,0.00,Snow,Light Snow,270,2012-12-30 05:11:00
12:34 AM,28.4,24.8,86,29.96,4.0,WNW,11.5,-,0.00,Snow,Light Snow,290,2012-12-30 05:34:00
1:53 AM,28.0,23.0,81,30.06,5.0,WNW,11.5,23.0,0.00,Snow,Light Snow,290,2012-12-30 06:53:00
2:31 AM,26.6,23.0,86,30.03,10.0,West,16.1,23.0,0.00,,Overcast,280,2012-12-30 07:31:00
2:40 AM,26.6,23.0,86,30.04,10.0,West,12.7,-,0.00,,Overcast,280,2012-12-30 07:40:00
2:53 AM,27.0,21.9,81,30.10,10.0,WNW,12.7,24.2,0.00,,Overcast,290,2012-12-30 07:53:00
3:16 AM,26.6,21.2,80,30.06,10.0,West,13.8,21.9,N/A,,Overcast,280,2012-12-30 08:16:00
3:53 AM,27.0,19.0,72,30.14,10.0,WNW,13.8,26.5,N/A,,Overcast,290,2012-12-30 08:53:00
4:53 AM,26.1,19.0,75,30.17,10.0,WNW,16.1,25.3,N/A,,Overcast,290,2012-12-30 09:53:00
5:53 AM,26.1,19.0,75,30.20,10.0,West,9.2,18.4,N/A,,Overcast,280,2012-12-30 10:53:00
6:53 AM,26.1,19.0,75,30.25,10.0,West,11.5,-,N/A,,Overcast,280,2012-12-30 11:53:00
7:44 AM,26.6,19.4,74,30.22,7.0,West,11.5,-,0.00,Snow,Light Snow,270,2012-12-30 12:44:00
7:53 AM,26.1,19.9,78,30.28,4.0,West,10.4,-,0.00,Snow,Light Snow,260,2012-12-30 12:53:00
8:30 AM,26.6,21.2,80,30.25,6.0,West,10.4,-,0.00,,Haze,260,2012-12-30 13:30:00
8:53 AM,27.0,21.0,78,30.31,9.0,West,10.4,-,0.00,,Overcast,260,2012-12-30 13:53:00
9:53 AM,26.1,21.0,81,30.34,4.0,West,16.1,24.2,0.00,Snow,Light Snow,260,2012-12-30 14:53:00
10:53 AM,26.1,21.0,81,30.37,4.0,West,10.4,21.9,0.00,Snow,Light Snow,260,2012-12-30 15:53:00
11:53 AM,26.1,21.0,81,30.37,5.0,WSW,15.0,23.0,0.00,,Haze,250,2012-12-30 16:53:00
12:53 PM,26.1,21.0,81,30.35,7.0,West,13.8,-,N/A,,Overcast,260,2012-12-30 17:53:00
1:22 PM,26.6,21.2,80,30.30,9.0,WSW,13.8,21.9,N/A,,Overcast,240,2012-12-30 18:22:00
1:53 PM,26.1,19.9,78,30.36,10.0,WSW,13.8,23.0,N/A,,Overcast,250,2012-12-30 18:53:00
2:31 PM,26.6,19.4,74,30.31,10.0,West,13.8,-,N/A,,Overcast,260,2012-12-30 19:31:00
2:53 PM,26.1,19.0,75,30.37,10.0,WSW,16.1,23.0,N/A,,Overcast,250,2012-12-30 19:53:00
3:53 PM,26.1,19.0,75,30.39,10.0,WSW,11.5,21.9,N/A,,Overcast,240,2012-12-30 20:53:00
4:53 PM,26.1,19.0,75,30.38,10.0,WSW,11.5,-,N/A,,Overcast,240,2012-12-30 21:53:00
5:53 PM,25.0,18.0,75,30.38,10.0,West,8.1,-,N/A,,Overcast,260,2012-12-30 22:53:00
6:53 PM,25.0,18.0,75,30.38,10.0,WSW,6.9,-,N/A,,Overcast,240,2012-12-30 23:53:00
7:53 PM,25.0,18.0,75,30.40,10.0,SW,9.2,16.1,N/A,,Overcast,230,2012-12-31 00:53:00
8:53 PM,25.0,18.0,75,30.40,10.0,SW,12.7,19.6,N/A,,Overcast,230,2012-12-31 01:53:00
9:53 PM,24.1,18.0,77,30.39,10.0,SW,15.0,23.0,N/A,,Overcast,220,2012-12-31 02:53:00
10:49 PM,24.8,17.6,74,30.32,10.0,SW,6.9,-,N/A,,Partly Cloudy,220,2012-12-31 03:49:00
10:53 PM,24.1,18.0,77,30.38,10.0,SW,11.5,-,N/A,,Partly Cloudy,220,2012-12-31 03:53:00
11:53 PM,23.0,18.0,81,30.37,10.0,SW,6.9,-,N/A,,Clear,230,2012-12-31 04:53:00